{"data":{"norad_id":52846,"intl_designator":"2022-062S","name":"STARLINK-4212","alt_names":[],"object_type":"PAYLOAD","status":"ACTIVE","operator":null,"country":"US","launch_date":"2022-06-17","launch_site_code":"AFETR","launch_vehicle":null,"mission":null,"orbit_class":"UNKNOWN","rcs_meters":null,"size_class":null,"mass_kg":null,"dimensions":null,"purposes":["comms"],"wikipedia_slug":null,"has_3d_model":false,"image_url":null,"decayed_at":null,"tle_current":{"epoch":"2026-09-20T04:55:11.283744Z","epoch_age_seconds":91897,"freshness":"FRESH","line1":"1 52846U 22062S   26263.20499171 -.00000393  00000+0 -89461-6 0  9999","line2":"2 52846  53.1586 230.4368 0001442  91.9197 268.1970 15.31700840235291","mean_motion":15.3170084,"eccentricity":0.0001442,"inclination_deg":53.1586,"raan_deg":230.4368,"arg_perigee_deg":91.9197,"mean_anomaly_deg":268.197,"bstar":-8.9461e-7,"rev_number":23529,"period_min":94.01313640332,"perigee_km":469.74988352887,"apogee_km":471.72509893214,"semimajor_km":6848.8744912305,"source":"CELESTRAK","updated_at":"2026-09-20T09:00:40.114050Z"}}}